FW5284 Weather Reports


Display with metric or nautical units.
time (UTC)temp
F
wind
direction
speed
MPH
gust
MPH
rain 1hr
in
rain 24hr
in
rain mn
in
humidity
%
barometer
mb
20260510204503 67 296 0.0 0.0 0.00 0.09 0.08 69 990.8
20260510204002 67 296 0.0 0.0 0.00 0.09 0.08 70 990.7
20260510203506 66 296 0.0 0.0 0.00 0.09 0.08 72 990.6
20260510203003 66 296 0.0 0.0 0.00 0.09 0.08 73 990.6
20260510202504 66 296 0.0 0.0 0.00 0.09 0.08 73 990.6
20260510202002 66 296 0.0 0.0 0.00 0.09 0.08 72 990.8
20260510201507 66 295 0.0 0.0 0.00 0.09 0.08 73 990.7
20260510201005 66 296 0.0 0.0 0.00 0.09 0.08 73 990.8
20260510200504 66 295 0.0 0.0 0.00 0.09 0.08 74 990.7
20260510200010 66 296 0.0 0.0 0.00 0.09 0.08 73 990.8
20260510195504 66 295 0.0 0.0 0.00 0.09 0.08 74 990.8
20260510195004 66 295 0.0 0.0 0.00 0.09 0.08 74 991.0
20260510194521 66 295 0.0 0.0 0.00 0.09 0.08 73 991.0
20260510194005 66 295 0.0 0.0 0.00 0.09 0.08 74 991.0
20260510193507 65 295 0.0 0.0 0.00 0.09 0.08 74 991.1
20260510193004 66 295 0.0 0.0 0.00 0.09 0.08 74 991.1
20260510192505 66 295 0.0 0.0 0.00 0.09 0.08 72 991.0
20260510192002 66 295 0.0 0.0 0.00 0.09 0.08 72 991.1
20260510191503 67 295 0.0 0.0 0.00 0.09 0.08 69 991.0
20260510191004 67 295 0.0 0.0 0.00 0.09 0.08 71 991.0
20260510190504 69 295 0.0 0.0 0.00 0.09 0.08 69 991.1
20260510190009 70 295 0.0 0.0 0.00 0.09 0.08 64 991.0
20260510185505 71 295 0.0 0.0 0.00 0.09 0.08 64 990.8
20260510185003 72 305 0.0 0.0 0.00 0.09 0.08 62 990.6
20260510184511 73 305 0.0 0.0 0.00 0.09 0.08 60 990.6
20260510184004 74 304 0.0 0.0 0.00 0.09 0.08 64 990.6
20260510183509 71 304 0.0 0.0 0.00 0.09 0.08 67 990.7
20260510183015 70 303 0.0 0.0 0.00 0.09 0.08 70 990.7
20260510182511 70 303 0.0 0.0 0.00 0.09 0.08 67 990.9
20260510182006 72 304 0.0 0.0 0.00 0.09 0.08 60 991.0
20260510181521 75 304 0.0 0.0 0.00 0.09 0.08 56 991.0
20260510181002 76 304 0.0 0.0 0.00 0.09 0.08 55 990.9
20260510180503 78 304 0.0 0.0 0.00 0.09 0.08 52 990.9
20260510180005 80 293 0.0 0.0 0.00 0.09 0.08 51 990.9
20260510175503 75 291 0.0 0.0 0.00 0.09 0.08 58 991.0
20260510175003 74 285 0.0 0.0 0.00 0.09 0.08 58 990.6
20260510174507 72 285 0.0 0.0 0.00 0.09 0.08 61 1001.2
20260510174005 74 288 0.0 0.0 0.00 0.09 0.08 58 997.3
20260510173503 74 288 0.0 0.0 0.00 0.09 0.08 58 999.8
20260510173016 75 288 0.0 0.0 0.00 0.09 0.08 56 995.8
20260510172504 74 288 0.0 0.0 0.00 0.09 0.08 56 1001.9
20260510172006 74 288 0.0 0.0 0.00 0.09 0.08 57 1000.9
20260510171520 74 286 0.0 0.0 0.00 0.09 0.08 56 1002.1
20260510171007 75 285 0.0 0.0 0.00 0.09 0.08 57 1006.6
20260510170514 73 285 0.0 0.0 0.00 0.09 0.08 60 1007.1
20260510170024 74 286 0.0 0.0 0.00 0.09 0.08 59 1006.4
20260510165505 74 287 0.0 0.0 0.00 0.09 0.08 58 1004.5
20260510165003 72 285 0.0 0.0 0.00 0.09 0.08 62 1003.3
20260510164511 72 285 0.0 0.0 0.00 0.09 0.08 61 1001.4
20260510164003 73 285 0.0 0.0 0.00 0.09 0.08 60 998.4
20260510163504 72 286 0.0 0.0 0.00 0.09 0.08 63 997.5
20260510163009 71 285 0.0 0.0 0.00 0.09 0.08 64 1001.7
20260510162504 71 287 0.0 0.0 0.00 0.09 0.08 64 990.1
20260510162006 70 287 0.0 0.0 0.00 0.09 0.08 65 997.0
20260510161516 69 285 0.0 0.0 0.00 0.09 0.08 66 992.7
20260510161007 69 285 0.0 0.0 0.00 0.09 0.08 66 987.0
20260510160507 70 286 0.0 0.0 0.00 0.09 0.08 64 985.3
20260510160022 71 290 0.0 0.0 0.00 0.09 0.08 64 986.0
20260510155506 67 285 0.0 0.0 0.00 0.09 0.08 68 988.2
20260510155006 69 285 0.0 0.0 0.00 0.09 0.08 64 982.8
20260510154529 71 288 0.0 0.0 0.00 0.09 0.08 63 989.9
20260510154004 71 288 0.0 0.0 0.00 0.09 0.08 63 998.4
20260510153504 71 288 0.0 0.0 0.00 0.09 0.08 64 1003.3
20260510153008 70 287 0.0 0.0 0.00 0.09 0.08 67 1003.1
20260510152504 69 288 0.0 0.0 0.00 0.09 0.08 68 1001.2
20260510152006 69 288 0.0 0.0 0.00 0.09 0.08 71 1001.6
20260510151511 68 290 0.0 0.0 0.00 0.09 0.08 68 970.0
20260510151005 69 288 0.0 0.0 0.00 0.09 0.08 60 959.8
20260510150510 69 286 0.0 0.0 0.00 0.09 0.08 66 955.9
20260510150017 69 287 0.0 0.0 0.00 0.09 0.08 63 965.6
20260510145507 67 288 0.0 0.0 0.00 0.09 0.08 68 973.7
20260510145009 67 286 0.0 0.0 0.00 0.09 0.08 68 977.7
20260510144529 68 288 0.0 0.0 0.00 0.09 0.08 67 980.8
20260510144011 68 286 0.0 0.0 0.00 0.09 0.08 67 986.2
20260510143511 68 289 0.0 0.0 0.00 0.09 0.08 69 998.0
20260510143034 65 288 0.0 0.0 0.00 0.09 0.08 74 1004.3
20260510142503 64 289 0.0 0.0 0.00 0.09 0.08 72 1004.7
20260510142003 63 287 0.0 0.0 0.00 0.09 0.08 74 1004.2
20260510141509 62 287 0.0 0.0 0.00 0.09 0.08 74 1000.7
20260510141005 62 288 0.0 0.0 0.00 0.09 0.08 76 998.6
20260510140505 60 287 0.0 0.0 0.00 0.09 0.08 79 994.3
20260510140015 59 287 0.0 0.0 0.00 0.09 0.08 79 1000.3
20260510135508 67 289 0.0 0.0 0.00 0.09 0.08 69 998.7
20260510135006 69 293 0.0 0.0 0.00 0.09 0.08 67 998.7
20260510134520 65 292 0.0 0.0 0.00 0.09 0.08 82 998.4
20260510134007 56 288 0.0 0.0 0.00 0.09 0.08 86 998.5
20260510133516 56 286 0.0 0.0 0.00 0.09 0.08 86 995.1
20260510133021 55 288 0.0 0.0 0.00 0.09 0.08 89 999.9
20260510132517 54 286 0.0 0.0 0.00 0.09 0.08 89 1000.5
20260510132016 53 286 0.0 0.0 0.00 0.09 0.08 88 1000.4
20260510131529 52 287 0.0 0.0 0.00 0.09 0.08 89 996.2
20260510131011 52 288 0.0 0.0 0.00 0.09 0.08 89 998.6
20260510130503 53 288 0.0 0.0 0.00 0.09 0.08 86 981.5
20260510130012 53 286 0.0 0.0 0.00 0.09 0.08 84 995.7
20260510125509 54 288 0.0 0.0 0.00 0.09 0.08 80 992.8
20260510125008 54 287 0.0 0.0 0.00 0.09 0.08 80 996.7
20260510124521 54 285 0.0 0.0 0.00 0.09 0.08 79 996.3
20260510124007 52 288 0.0 0.0 0.00 0.09 0.08 81 994.3
20260510123506 51 288 0.0 0.0 0.00 0.09 0.08 81 990.8
20260510123022 50 288 0.0 0.0 0.00 0.09 0.08 87 994.5
20260510122506 49 294 0.0 0.0 0.00 0.09 0.08 89 995.1
20260510122009 49 295 0.0 0.0 0.00 0.09 0.08 89 995.0
20260510121525 49 295 0.0 0.0 0.00 0.09 0.08 90 994.9
20260510121007 49 295 0.0 0.0 0.00 0.09 0.08 91 994.7
20260510120511 49 295 0.0 0.0 0.00 0.09 0.08 92 994.4
20260510120027 49 295 0.0 0.0 0.00 0.09 0.08 92 994.4
20260510115506 49 295 0.0 0.0 0.00 0.09 0.08 92 994.4
20260510115008 50 295 0.0 0.0 0.00 0.09 0.08 93 994.3
20260510114514 50 295 0.0 0.0 0.00 0.09 0.08 93 994.1
20260510114006 50 295 0.0 0.0 0.00 0.09 0.08 93 994.2
20260510113505 50 295 0.0 0.0 0.00 0.09 0.08 93 994.0
20260510113018 49 295 0.0 0.0 0.00 0.09 0.08 93 993.6
20260510112509 50 295 0.0 0.0 0.00 0.09 0.08 93 993.5
20260510112006 50 295 0.0 0.0 0.00 0.09 0.08 93 993.3
20260510111524 50 295 0.0 0.0 0.00 0.09 0.08 93 993.3
20260510111007 50 295 0.0 0.0 0.00 0.09 0.08 94 993.2
20260510110510 50 295 0.0 0.0 0.00 0.09 0.08 93 993.1
20260510110029 50 295 0.0 0.0 0.00 0.09 0.08 93 993.0
20260510105509 50 295 0.0 0.0 0.00 0.09 0.08 93 992.9
20260510105008 50 295 0.0 0.0 0.00 0.09 0.08 93 992.7
20260510104529 50 295 0.0 0.0 0.00 0.09 0.08 93 992.5
20260510104010 50 295 0.0 0.0 0.00 0.09 0.08 93 992.4
20260510103512 50 295 0.0 0.0 0.00 0.09 0.08 93 992.5
20260510103020 50 295 0.0 0.0 0.00 0.09 0.08 93 992.4
20260510102507 50 295 0.0 0.0 0.00 0.09 0.08 93 992.1
20260510102006 50 295 0.0 0.0 0.00 0.09 0.08 93 992.0
20260510101517 50 295 0.0 0.0 0.00 0.09 0.08 93 991.8
20260510101007 50 295 0.0 0.0 0.00 0.09 0.08 93 992.0
20260510100506 50 295 0.0 0.0 0.00 0.09 0.08 93 991.9
20260510100031 50 295 0.0 0.0 0.00 0.09 0.08 93 991.7
20260510095511 50 295 0.0 0.0 0.00 0.09 0.08 93 991.7
20260510095007 50 295 0.0 0.0 0.00 0.09 0.08 93 991.6
20260510094531 50 295 0.0 0.0 0.00 0.09 0.08 92 991.5
20260510094008 50 295 0.0 0.0 0.00 0.09 0.08 92 991.3
20260510093511 50 295 0.0 0.0 0.00 0.09 0.08 92 991.2
20260510093027 50 295 0.0 0.0 0.00 0.09 0.08 92 991.0
20260510092511 50 295 0.0 0.0 0.00 0.09 0.08 92 991.0
20260510092014 50 295 0.0 0.0 0.00 0.09 0.08 92 991.0
20260510091520 50 295 0.0 0.0 0.00 0.09 0.08 92 991.0
20260510091006 50 295 0.0 0.0 0.00 0.09 0.08 92 991.0
20260510090507 50 295 0.0 0.0 0.00 0.09 0.08 93 990.9
20260510090025 50 295 0.0 0.0 0.00 0.09 0.08 93 990.9
20260510085510 49 295 0.0 0.0 0.00 0.09 0.08 92 990.9
20260510085007 49 295 0.0 0.0 0.00 0.09 0.08 93 990.9
20260510084526 50 295 0.0 0.0 0.00 0.09 0.08 93 990.8
20260510084011 50 295 0.0 0.0 0.00 0.09 0.08 93 990.6
20260510083511 49 295 0.0 0.0 0.00 0.09 0.08 93 990.5
20260510083030 49 295 0.0 0.0 0.00 0.10 0.08 93 990.7
20260510082508 49 295 0.0 0.0 0.00 0.10 0.08 93 990.7
20260510082010 49 295 0.0 0.0 0.00 0.10 0.08 93 990.3
20260510081533 49 295 0.0 0.0 0.00 0.10 0.08 93 990.6
20260510081009 49 295 0.0 0.0 0.00 0.10 0.08 93 990.7
20260510080508 49 295 0.0 0.0 0.00 0.10 0.08 92 990.7
20260510080023 49 295 0.0 0.0 0.00 0.10 0.08 93 990.6
20260510075506 49 295 0.0 0.0 0.00 0.10 0.08 93 990.5
20260510075004 49 295 0.0 0.0 0.00 0.10 0.08 93 990.7
20260510074512 49 295 0.0 0.0 0.00 0.10 0.08 93 990.6
20260510074003 49 295 0.0 0.0 0.00 0.10 0.08 93 990.5
20260510073504 49 295 0.0 0.0 0.00 0.11 0.08 93 990.3
20260510073008 49 295 0.0 0.0 0.00 0.11 0.08 93 990.2
20260510072507 49 295 0.0 0.0 0.00 0.11 0.08 93 990.2
20260510072004 49 295 0.0 0.0 0.00 0.11 0.08 93 990.3
20260510071512 49 295 0.0 0.0 0.00 0.12 0.08 92 990.2
20260510071004 49 295 0.0 0.0 0.00 0.12 0.08 92 989.9
20260510070505 49 295 0.0 0.0 0.00 0.13 0.08 92 989.9
20260510070014 49 295 0.0 0.0 0.00 0.14 0.08 92 989.9
20260510065504 49 295 0.0 0.0 0.00 0.15 0.08 92 989.9
20260510065004 49 295 0.0 0.0 0.00 0.16 0.08 91 989.9
20260510064518 49 295 0.0 0.0 0.00 0.17 0.08 91 990.1
20260510064003 50 295 0.0 0.0 0.00 0.18 0.08 91 990.0
20260510063503 50 295 0.0 0.0 0.00 0.19 0.08 91 990.0
20260510063013 50 295 0.0 0.0 0.00 0.20 0.08 91 990.0
20260510062508 50 295 0.0 0.0 0.00 0.20 0.08 91 990.0
20260510062004 50 295 0.0 0.0 0.00 0.21 0.08 91 990.0
20260510061509 51 295 0.0 0.0 0.00 0.21 0.08 91 989.9
20260510061004 51 295 0.0 0.0 0.00 0.22 0.08 91 990.2
20260510060504 51 295 0.0 0.0 0.00 0.23 0.08 91 990.3
20260510060011 51 295 0.0 0.0 0.01 0.23 0.08 91 990.3
20260510055505 51 295 0.0 0.0 0.01 0.25 0.08 91 990.4
20260510055004 51 295 0.0 0.0 0.01 0.26 0.08 91 990.2
20260510054516 52 295 0.0 0.0 0.01 0.26 0.08 91 990.2
20260510054008 52 295 0.0 0.0 0.01 0.26 0.08 91 990.1
20260510053507 52 295 0.0 0.0 0.01 0.27 0.08 91 990.2
20260510053019 52 295 0.0 0.0 0.03 0.27 0.08 91 990.1
20260510052506 52 295 0.0 0.0 0.04 0.28 0.08 91 990.0
20260510052008 52 295 0.0 0.0 0.06 0.29 0.08 91 989.9
20260510051519 52 295 0.0 0.0 0.06 0.29 0.08 91 989.9
20260510051007 52 295 0.0 0.0 0.07 0.29 0.08 91 989.9
20260510050503 52 295 0.0 0.0 0.07 0.30 0.08 91 990.0
20260510050011 52 295 0.0 0.0 0.07 0.29 0.07 91 990.0
20260510045506 52 295 0.0 0.0 0.07 0.29 0.07 91 990.0
20260510045006 52 295 0.0 0.0 0.08 0.29 0.07 91 989.9
20260510044502 53 295 0.0 0.0 0.08 0.29 0.07 91 990.1
20260510044002 53 295 0.0 0.0 0.08 0.29 0.07 91 990.2
20260510043502 53 295 0.0 0.0 0.08 0.29 0.07 90 990.7
20260510043004 53 295 0.0 0.0 0.06 0.28 0.05 91 990.5
20260510042503 53 295 0.0 0.0 0.05 0.27 0.04 90 990.7
20260510042003 53 295 0.0 0.0 0.03 0.25 0.02 90 990.8
20260510041504 53 295 0.0 0.0 0.03 0.25 0.02 90 990.6
20260510041004 53 295 0.0 0.0 0.02 0.24 0.01 89 990.6
20260510040504 53 295 0.0 0.0 0.02 0.24 0.01 89 990.6
20260510040010 53 295 0.0 0.0 0.01 0.23 0.00 89 990.6
20260510035502 54 295 0.0 0.0 0.01 0.23 0.23 88 990.5
20260510035004 54 295 0.0 0.0 0.00 0.23 0.22 88 990.4
20260510034512 54 295 0.0 0.0 0.00 0.23 0.22 87 990.4
20260510034006 54 295 0.0 0.0 0.00 0.24 0.22 87 990.5
20260510033505 55 295 0.0 0.0 0.00 0.24 0.22 87 990.6
20260510033004 55 295 0.0 0.0 0.00 0.24 0.22 87 990.7
20260510032502 55 295 0.0 0.0 0.00 0.24 0.22 86 990.6
20260510032003 55 295 0.0 0.0 0.00 0.25 0.22 85 990.6
20260510031503 56 295 0.0 0.0 0.00 0.25 0.22 84 990.6
20260510031002 55 295 0.0 0.0 0.00 0.26 0.22 84 990.6
20260510030505 55 295 0.0 0.0 0.00 0.26 0.22 84 990.2
20260510030007 55 295 0.0 0.0 0.00 0.26 0.22 84 989.8
20260510025503 55 295 0.0 0.0 0.00 0.26 0.22 84 989.7
20260510025002 55 295 0.0 0.0 0.00 0.26 0.22 84 989.4
20260510024510 55 295 0.0 0.0 0.00 0.26 0.22 84 989.2
20260510024003 55 295 0.0 0.0 0.00 0.26 0.22 84 989.2
20260510023506 55 295 0.0 0.0 0.00 0.26 0.22 84 989.3
20260510023016 55 295 0.0 0.0 0.00 0.26 0.22 84 989.3
20260510022510 55 295 0.0 0.0 0.00 0.26 0.22 84 989.2
20260510022007 55 295 0.0 0.0 0.00 0.26 0.22 84 989.1
20260510021521 55 295 0.0 0.0 0.00 0.26 0.22 84 989.0
20260510021002 55 295 0.0 0.0 0.00 0.26 0.22 84 988.9
20260510020506 55 295 0.0 0.0 0.00 0.27 0.22 84 988.9
20260510020004 55 295 0.0 0.0 0.00 0.27 0.22 83 988.8
20260510015504 55 295 0.0 0.0 0.00 0.27 0.22 83 988.7
20260510015003 55 295 0.0 0.0 0.00 0.27 0.22 84 988.8
20260510014505 55 295 0.0 0.0 0.00 0.27 0.22 84 988.9
20260510014002 55 295 0.0 0.0 0.00 0.27 0.22 84 989.2
20260510013501 54 295 0.0 0.0 0.00 0.27 0.22 84 989.0
20260510013010 54 295 0.0 0.0 0.00 0.28 0.22 84 988.8
20260510012503 54 295 0.0 0.0 0.00 0.28 0.22 84 988.5
20260510012007 54 295 0.0 0.0 0.00 0.28 0.22 84 988.7
20260510011533 54 295 0.0 0.0 0.00 0.28 0.22 84 988.5
20260510011006 54 295 0.0 0.0 0.00 0.28 0.22 84 988.5
20260510010506 54 295 0.0 0.0 0.00 0.29 0.22 83 988.6
20260510010020 55 295 0.0 0.0 0.00 0.29 0.22 83 988.7
20260510005503 55 295 0.0 0.0 0.00 0.29 0.22 83 988.5
20260510005003 55 295 0.0 0.0 0.00 0.30 0.22 82 988.5
20260510004504 55 295 0.0 0.0 0.00 0.30 0.22 82 988.4
20260510004005 55 295 0.0 0.0 0.00 0.30 0.22 82 988.3
20260510003503 55 295 0.0 0.0 0.00 0.30 0.22 81 988.5
20260510003007 56 295 0.0 0.0 0.00 0.31 0.22 81 988.4
20260510002502 56 295 0.0 0.0 0.00 0.31 0.22 80 988.4
20260510002006 56 295 0.0 0.0 0.00 0.32 0.22 80 988.3
20260510001514 56 295 0.0 0.0 0.00 0.32 0.22 80 988.3
20260510001006 56 295 0.0 0.0 0.00 0.32 0.22 79 988.3
20260510000506 57 295 0.0 0.0 0.00 0.33 0.22 79 988.4
20260510000018 57 295 0.0 0.0 0.00 0.33 0.22 79 988.5
20260509235510 57 295 0.0 0.0 0.00 0.33 0.22 78 988.5
20260509235006 57 295 0.0 0.0 0.00 0.34 0.22 78 988.5
20260509234527 58 295 0.0 0.0 0.00 0.34 0.22 77 988.3
20260509234011 58 295 0.0 0.0 0.00 0.34 0.22 77 988.1
20260509233507 58 295 0.0 0.0 0.00 0.34 0.22 76 988.1
20260509233007 58 295 0.0 0.0 0.00 0.35 0.22 76 988.3
20260509232503 58 295 0.0 0.0 0.00 0.36 0.22 76 988.4
20260509232004 59 295 0.0 0.0 0.00 0.37 0.22 75 988.3
20260509231512 59 295 0.0 0.0 0.00 0.38 0.22 76 988.4
20260509231005 59 295 0.0 0.0 0.00 0.38 0.22 75 988.5
20260509230506 59 295 0.0 0.0 0.00 0.39 0.22 75 988.4
20260509230016 59 295 0.0 0.0 0.00 0.40 0.22 74 988.3
20260509225507 59 295 0.0 0.0 0.00 0.41 0.22 74 988.3
20260509225006 60 295 0.0 0.0 0.00 0.41 0.22 74 988.4
20260509224521 60 295 0.0 0.0 0.00 0.42 0.22 74 988.5
20260509224007 60 295 0.0 0.0 0.00 0.43 0.22 74 988.5
20260509223506 60 295 0.0 0.0 0.00 0.44 0.22 73 988.6
20260509223023 60 295 0.0 0.0 0.00 0.44 0.22 74 988.6
20260509222509 59 295 0.0 0.0 0.00 0.45 0.22 74 988.6
20260509222002 59 295 0.0 0.0 0.00 0.46 0.22 75 988.5
20260509221508 59 295 0.0 0.0 0.00 0.47 0.22 74 988.5
20260509221004 59 295 0.0 0.0 0.00 0.47 0.22 73 988.5
20260509220503 60 295 0.0 0.0 0.00 0.47 0.22 73 988.4
20260509220013 60 295 0.0 0.0 0.00 0.47 0.22 73 988.4
20260509215506 60 294 0.0 0.0 0.00 0.47 0.22 72 988.4
20260509215008 60 295 0.0 0.0 0.00 0.47 0.22 72 988.4
20260509214526 60 295 0.0 0.0 0.00 0.47 0.22 72 988.5
20260509214006 60 295 0.0 0.0 0.00 0.47 0.22 71 988.7
20260509213507 60 294 0.0 0.0 0.00 0.48 0.22 72 988.7
20260509213022 60 295 0.0 0.0 0.00 0.48 0.22 74 988.5
20260509212507 59 295 0.0 0.0 0.00 0.48 0.22 74 988.4
20260509212007 59 294 0.0 0.0 0.00 0.48 0.22 73 988.4
20260509211524 60 294 0.0 0.0 0.00 0.49 0.22 71 988.5
20260509211010 61 294 0.0 0.0 0.00 0.50 0.22 71 988.5
20260509210504 62 294 0.0 0.0 0.00 0.50 0.22 69 988.5
20260509210008 62 294 0.0 0.0 0.00 0.50 0.22 70 988.5
20260509205504 62 294 0.0 0.0 0.00 0.50 0.22 71 988.5
20260509205006 61 294 0.0 0.0 0.00 0.50 0.22 73 988.5